Date String (YYYY-MM-DD hh:mm:ss) UTC,Instrument flags,Ambient pressure (hPa),Sample flow (lpm),Bypass flow (lpm),Sample temperature (°C),Ambient temperature (°C),ASC tube jacket temperature (°C),LED temperature (°C),Box temperature (°C),Sample RH (%),Span deviation,Mass concentration (μg/m³),Mass concentration (μg/m³),Mass concentration (μg/m³)
DateTimeUTC,F1_M11,P_M11,Q1_M11,Q2_M11,T1_M11,T2_M11,T3_M11,T4_M11,T5_M11,U1_M11,ZSPAN_M11,X0_M11,X2_M11,X1_M11
2022-12-31 01:00:00,,0815.0,5.04,0.00,21.7,20.2,00.0,30.8,23.3,12.5,0000.0,0001.18,0000.56,0000.38
2022-12-31 01:01:00,,0815.0,5.03,0.00,21.7,20.2,00.0,30.8,23.3,12.5,0000.0,0001.18,0000.56,0000.38
2022-12-31 01:02:00,,0815.1,4.97,0.00,21.7,20.2,00.0,30.7,23.4,12.5,0000.0,0001.18,0000.57,0000.38
2022-12-31 01:03:00,,0815.1,4.98,0.00,21.8,20.9,00.0,30.7,23.6,12.1,0000.0,0001.33,0000.60,0000.39
2022-12-31 01:04:00,,0815.2,5.03,0.00,21.9,21.8,00.0,30.7,23.9,12.4,0000.0,0001.60,0000.62,0000.40
2022-12-31 01:05:00,,0815.2,5.04,0.00,22.0,22.6,00.0,30.7,24.2,13.0,0000.0,0001.65,0000.61,0000.39
2022-12-31 01:06:00,,0815.1,4.96,0.00,22.2,22.6,00.0,30.8,24.3,12.4,0000.0,0001.77,0000.62,0000.38
2022-12-31 01:07:00,,0815.2,5.00,0.00,22.2,22.2,00.0,30.8,24.2,12.6,0000.0,0001.76,0000.63,0000.39
2022-12-31 01:08:00,,0815.2,5.04,0.00,22.2,21.8,00.0,30.9,24.1,12.3,0000.0,0001.90,0000.70,0000.40
2022-12-31 01:09:00,,0815.2,5.00,0.00,22.2,21.5,00.0,30.9,24.0,12.2,0000.0,0001.98,0000.75,0000.42
2022-12-31 01:10:00,,0815.2,4.97,0.00,22.2,21.2,00.0,30.9,23.9,12.3,0000.0,0001.86,0000.73,0000.43
2022-12-31 01:11:00,,0815.2,5.05,0.00,22.2,21.0,00.0,30.9,23.8,12.3,0000.0,0001.77,0000.72,0000.44
2022-12-31 01:12:00,,0815.5,5.02,0.00,22.1,20.8,00.0,30.9,23.8,12.2,0000.0,0001.80,0000.75,0000.45
2022-12-31 01:13:00,,0816.0,5.00,0.00,22.1,20.6,00.0,30.9,23.6,11.9,0000.0,0002.14,0000.98,0000.66
2022-12-31 01:14:00,,0815.8,4.97,0.00,22.0,20.4,00.0,30.9,23.5,11.8,0000.0,0003.40,0002.02,0001.63
2022-12-31 01:15:00,,0815.7,4.97,0.00,21.9,20.2,00.0,30.9,23.4,11.7,0000.0,0005.13,0003.18,0002.84
2022-12-31 01:16:00,,0815.9,5.06,0.00,21.8,19.9,00.0,30.9,23.3,11.4,0000.0,0007.42,0004.19,0003.86
2022-12-31 01:17:00,,0815.7,5.00,0.00,21.7,19.6,00.0,30.9,23.1,11.4,0000.0,0008.67,0005.12,0004.75
2022-12-31 01:18:00,,0815.8,4.98,0.00,21.7,19.4,00.0,30.8,23.1,11.6,0000.0,0009.80,0006.02,0005.61
2022-12-31 01:19:00,,0815.7,4.97,0.00,21.6,19.2,00.0,30.8,23.0,11.6,0000.0,0011.65,0006.78,0006.37
2022-12-31 01:20:00,,0815.7,4.98,0.00,21.5,19.5,00.0,30.7,23.0,11.6,0000.0,0013.16,0007.46,0007.06
2022-12-31 01:21:00,,0815.7,5.02,0.00,21.6,20.8,00.0,30.7,23.4,11.5,0000.0,0014.16,0008.20,0007.79
2022-12-31 01:22:00,,0815.7,5.02,0.00,21.8,21.9,00.0,30.6,23.7,11.5,0000.0,0015.25,0009.00,0008.51
2022-12-31 01:23:00,,0815.8,4.97,0.00,21.9,22.0,00.0,30.7,23.8,11.3,0000.0,0016.53,0009.76,0009.26
2022-12-31 01:24:00,,0815.8,4.98,0.00,21.9,21.5,00.0,30.7,23.7,11.5,0000.0,0018.25,0010.30,0009.77
2022-12-31 01:25:00,,0815.8,4.99,0.00,21.9,21.2,00.0,30.8,23.6,11.4,0000.0,0018.99,0010.38,0009.89
2022-12-31 01:26:00,,0815.8,5.01,0.00,21.8,20.8,00.0,30.8,23.5,11.3,0000.0,0018.53,0010.07,0009.61
2022-12-31 01:27:00,,0815.9,5.04,0.00,21.8,20.4,00.0,30.8,23.4,11.2,0000.0,0018.82,0009.65,0009.23
2022-12-31 01:28:00,,0815.9,4.99,0.00,21.7,20.1,00.0,30.8,23.2,11.2,0000.0,0018.00,0009.04,0008.67
2022-12-31 01:29:00,,0815.9,4.97,0.00,21.7,20.1,00.0,30.7,23.2,11.3,0000.0,0017.10,0008.34,0008.02
2022-12-31 01:30:00,,0815.8,5.03,0.00,21.7,20.0,00.0,30.7,23.2,11.4,0000.0,0015.69,0007.71,0007.41
2022-12-31 01:31:00,,0815.7,5.02,0.00,21.6,20.0,00.0,30.7,23.2,11.7,0000.0,0014.07,0007.07,0006.77
2022-12-31 01:32:00,,0815.6,4.98,0.00,21.6,20.0,00.0,30.7,23.2,12.4,0000.0,0013.09,0006.33,0006.07
2022-12-31 01:33:00,,0815.7,4.97,0.00,21.6,20.0,00.0,30.6,23.2,12.6,0000.0,0012.02,0005.55,0005.32
2022-12-31 01:34:00,,0815.7,5.01,0.00,21.6,20.0,00.0,30.6,23.1,12.2,0000.0,0010.89,0004.82,0004.61
2022-12-31 01:35:00,,0815.7,5.04,0.00,21.6,20.0,00.0,30.6,23.1,11.8,0000.0,0009.07,0004.25,0004.05
2022-12-31 01:36:00,,0815.7,4.99,0.00,21.5,20.0,00.0,30.6,23.1,11.9,0000.0,0007.70,0003.71,0003.52
2022-12-31 01:37:00,,0815.7,5.00,0.00,21.5,20.0,00.0,30.5,23.0,12.6,0000.0,0006.64,0003.12,0002.89
2022-12-31 01:38:00,,0815.9,4.99,0.00,21.5,20.7,00.0,30.5,23.2,12.5,0000.0,0003.67,0002.30,0002.07
2022-12-31 01:39:00,,0815.8,4.98,0.00,21.7,21.8,00.0,30.5,23.6,11.7,0000.0,0002.94,0001.86,0001.61
2022-12-31 01:40:00,,0815.9,5.03,0.00,21.8,22.5,00.0,30.5,23.8,12.1,0000.0,0002.73,0001.67,0001.40
2022-12-31 01:41:00,,0815.6,5.01,0.00,21.9,22.2,00.0,30.6,23.9,12.9,0000.0,0002.30,0001.37,0001.10
2022-12-31 01:42:00,,0815.5,4.98,0.00,21.9,21.8,00.0,30.6,23.8,12.8,0000.0,0001.94,0001.25,0000.96
2022-12-31 01:43:00,,0815.6,4.99,0.00,21.9,21.5,00.0,30.7,23.7,12.6,0000.0,0001.86,0001.20,0000.94
2022-12-31 01:44:00,,0815.3,5.02,0.00,21.9,21.2,00.0,30.7,23.6,12.5,0000.0,0001.83,0001.19,0000.94
2022-12-31 01:45:00,,0815.4,5.03,0.00,21.9,20.9,00.0,30.7,23.5,12.8,0000.0,0001.68,0001.09,0000.86
2022-12-31 01:46:00,,0815.3,4.96,0.00,21.9,20.7,00.0,30.7,23.5,12.5,0000.0,0001.46,0000.94,0000.73
2022-12-31 01:47:00,,0815.2,5.00,0.00,21.9,20.5,00.0,30.7,23.4,12.8,0000.0,0001.33,0000.85,0000.66
2022-12-31 01:48:00,,0815.1,5.03,0.00,21.8,20.4,00.0,30.7,23.4,12.9,0000.0,0001.22,0000.81,0000.63
2022-12-31 01:49:00,,0815.2,5.01,0.00,21.8,20.3,00.0,30.7,23.3,12.6,0000.0,0001.23,0000.81,0000.62
2022-12-31 01:50:00,,0815.2,4.97,0.00,21.8,20.2,00.0,30.7,23.3,12.9,0000.0,0001.14,0000.72,0000.53
2022-12-31 01:51:00,,0815.2,4.97,0.00,21.7,20.1,00.0,30.6,23.3,13.3,0000.0,0000.82,0000.49,0000.32
2022-12-31 01:52:00,,0815.4,5.03,0.00,21.7,20.1,00.0,30.6,23.2,12.7,0000.0,0000.85,0000.50,0000.33
2022-12-31 01:53:00,,0815.3,5.06,0.00,21.7,20.8,00.0,30.6,23.4,11.9,0000.0,0001.06,0000.63,0000.46
2022-12-31 01:54:00,,0815.3,4.97,0.00,21.8,21.9,00.0,30.6,23.8,11.4,0000.0,0002.93,0000.95,0000.77
2022-12-31 01:55:00,,0815.3,5.00,0.00,22.0,22.6,00.0,30.6,24.0,11.4,0000.0,0004.04,0001.22,0001.02
2022-12-31 01:56:00,,0815.2,5.03,0.00,22.0,22.2,00.0,30.7,24.0,11.3,0000.0,0004.36,0001.42,0001.20
2022-12-31 01:57:00,,0815.3,5.01,0.00,22.0,21.8,00.0,30.8,23.9,11.3,0000.0,0004.68,0001.62,0001.37
2022-12-31 01:58:00,,0815.3,4.97,0.00,22.0,21.3,00.0,30.8,23.8,11.3,0000.0,0004.99,0001.82,0001.54
2022-12-31 01:59:00,,0815.2,4.96,0.00,22.0,20.7,00.0,30.8,23.6,11.4,0000.0,0005.99,0002.41,0002.07
